Weather in N'Djamena

Chad     12°07′38″N   15°04′40″E
temp.,
°C
wind,
m/s
gust,
m/s
humid.,
%
clouds,
%
prec.,
mm/h
press.,
hPa
HPBL,
m
16 june, wed
wed1601:00+30s6104890 0.1 1008411
04:00+32sw81237100 0.0 1007722
07:00+31w6839100 0.0 1009586
10:00+32sw4540100 0.0 10111062
13:00+36wsw332874 0.0 10091693
16:00+38s112469 0.0 10063091
19:00+36nnw46265 0.0 1006306
22:00+34n22315 0.1 100841
17 june, thu
thu1701:00+32ssw353471 0.1 1009109
04:00+31sw5103893 0.0 1009408
07:00+31s454368 0.0 1011396
10:00+35ssw55355 0.0 10121290
13:00+39w54255 0.0 10092529
16:00+39wnw222177 0.0 10073245
19:00+37sse2224100 0.4 1008221
22:00+32sse8104329 0.3 1011769
18 june, fri
fri1801:00+29ssw81258100 0.3 1010606
04:00+28ssw4856100 0.0 1010392
07:00+29ssw4650100 0.0 1011317
10:00+34wsw343579 0.0 10121262
13:00+38w222776 0.0 10092555
16:00+39e142417 0.0 10073458
19:00+35nne78325 0.1 1008562
22:00+35nne35335 0.0 1009189
19 june, sat
sat1901:00+34e1134100 0.0 100812
04:00+31s594319 0.1 1009497
07:00+30s5752100 0.1 1012494
10:00+33ssw7744100 0.0 1012992
13:00+36ssw5435100 0.0 10101449
16:00+36ssw533332 0.0 10092357
19:00+33ssw55405 0.1 1009821
22:00+31s124699 0.4 1012124
20 june, sun
sun2001:00+30s4650100 0.4 1011498
04:00+29sse51059100 0.0 1011497
07:00+29s6961100 0.0 1013533
10:00+33ssw7844100 0.0 1013948
13:00+36s673280 0.0 10101698
16:00+38se4424100 0.0 10082373
19:00+35ne232987 0.0 100888
22:00+32ne244210 0.0 1010145